period_start,C,m1,H,J0,J1,J2,J3,J4,J5,JA,JB,JC,JD,JJ,JK,JN,#
2016-03-16 00:00:43,0.20,1.12,0.00,13.16,17.34,21.87,15.09,47.61,1015.64,2071.03,3140.25,2888.59,3282.59,599.98,615.83,3.59,0000 0000 0000 0000 000000
2016-03-16 00:05:44,0.22,1.13,0.00,13.16,17.35,21.91,15.11,47.82,1015.64,2071.01,3135.79,2885.66,3279.36,600.03,615.94,3.64,0000 0000 0000 0000 000000
2016-03-16 00:10:46,0.22,1.14,0.00,13.21,17.37,21.92,14.96,47.80,1015.64,2071.00,3131.23,2882.65,3276.06,599.60,615.47,3.69,0000 0000 0000 0000 000000
2016-03-16 00:15:47,0.22,1.15,0.00,13.25,17.38,21.94,15.15,47.70,1015.63,2071.00,3126.47,2879.61,3272.64,600.23,615.88,3.74,0000 0000 0000 0000 000000
2016-03-16 00:20:48,0.22,1.16,0.00,13.26,17.39,21.98,15.05,47.74,1015.48,2071.00,3121.74,2876.70,3269.21,599.79,615.42,3.79,0000 0000 0000 0000 000000
2016-03-16 00:25:50,0.25,1.18,0.00,13.26,17.41,21.95,15.00,47.67,1015.37,2071.00,3116.82,2873.49,3265.67,599.85,615.36,3.84,0000 0000 0000 0000 000000
2016-03-16 00:30:51,0.26,1.19,0.00,13.30,17.42,21.96,15.06,47.79,1015.34,2071.00,3111.26,2869.99,3261.98,600.07,615.56,3.89,0000 0000 0000 0000 000000
2016-03-16 00:35:52,0.27,1.20,0.00,13.33,17.44,22.00,15.17,48.06,1015.38,2071.00,3105.51,2866.32,3258.04,600.04,615.47,3.94,0000 0000 0000 0000 000000
2016-03-16 00:40:54,0.25,1.22,0.00,13.34,17.45,21.98,15.13,47.84,1015.44,2071.00,3100.41,2862.94,3254.04,600.30,615.71,3.99,0000 0000 0000 0000 000000
2016-03-16 00:45:55,0.25,1.23,0.00,13.35,17.47,22.02,15.09,47.75,1015.27,2070.98,3095.28,2859.61,3250.40,599.72,614.92,4.04,0000 0000 0000 0000 000000
2016-03-16 00:50:57,0.25,1.24,0.00,13.37,17.49,22.00,15.10,47.90,1015.33,2070.98,3090.20,2856.29,3246.63,599.89,615.26,4.09,0000 0000 0000 0000 000000
2016-03-16 00:55:58,0.23,1.25,0.00,13.39,17.52,22.06,15.04,47.78,1015.27,2070.93,3085.46,2853.16,3243.05,599.92,615.25,4.14,0000 0000 0000 0000 000000
2016-03-16 01:00:59,0.19,1.26,0.00,13.41,17.54,22.10,15.07,47.83,1015.38,2070.74,3080.94,2850.23,3239.81,600.12,615.33,4.19,0000 0000 0000 0000 000000
2016-03-16 01:06:01,0.16,1.27,0.00,13.45,17.57,22.10,15.06,47.83,1015.48,2070.19,3076.60,2847.34,3236.60,600.17,615.38,4.24,0000 0000 0000 0000 000000
2016-03-16 01:11:02,0.19,1.28,0.00,13.48,17.59,22.14,15.17,48.12,1015.28,2070.11,3072.48,2844.62,3233.60,600.06,614.99,4.29,0000 0000 0000 0000 000000
2016-03-16 01:16:03,0.20,1.29,0.00,13.51,17.62,22.16,15.14,47.98,1015.37,2070.03,3068.45,2841.91,3230.49,600.33,615.44,4.34,0000 0000 0000 0000 000000
2016-03-16 01:21:04,0.20,1.30,0.00,13.56,17.65,22.17,15.04,47.92,1015.49,2070.01,3064.28,2839.12,3227.39,600.24,615.19,4.39,0000 0000 0000 0000 000000
2016-03-16 01:26:06,0.21,1.31,0.00,13.58,17.68,22.22,15.08,47.98,1015.59,2070.01,3060.05,2836.32,3224.29,599.78,614.77,4.44,0000 0000 0000 0000 000000
2016-03-16 01:31:07,0.20,1.32,0.00,13.61,17.71,22.23,15.09,47.95,1015.47,2070.00,3055.90,2833.62,3221.22,600.02,614.96,4.49,0000 0000 0000 0000 000000
2016-03-16 01:36:08,0.21,1.34,0.00,13.64,17.74,22.29,15.06,48.03,1015.48,2070.00,3051.71,2830.81,3218.00,600.07,614.79,4.54,0000 0000 0000 0000 000000
2016-03-16 01:41:10,0.22,1.35,0.00,13.69,17.77,22.30,15.06,47.99,1015.30,2069.98,3047.24,2827.87,3214.64,599.85,614.46,4.59,0000 0000 0000 0000 000000
2016-03-16 01:46:12,0.25,1.36,0.00,13.72,17.80,22.34,15.09,47.93,1015.19,2069.97,3042.20,2824.53,3210.92,600.20,614.70,4.64,0000 0000 0000 0000 000000
2016-03-16 01:51:13,0.23,1.37,0.00,13.75,17.83,22.36,15.03,48.02,1015.15,2069.78,3037.05,2821.21,3207.36,599.89,614.25,4.69,0000 0000 0000 0000 000000
2016-03-16 01:56:14,0.26,1.39,0.00,13.78,17.85,22.38,15.08,48.08,1015.15,2069.58,3031.76,2817.78,3203.50,600.06,614.37,4.74,0000 0000 0000 0000 000000
2016-03-16 02:01:16,0.19,1.39,0.00,13.83,17.88,22.40,15.06,47.90,1015.15,2069.24,3026.92,2814.60,3199.75,599.84,614.10,4.79,0000 0000 0000 0000 000000
2016-03-16 02:06:17,0.22,1.41,0.00,13.87,17.91,22.44,15.09,47.91,1015.15,2069.03,3022.28,2811.55,3196.38,600.07,613.98,4.84,0000 0000 0000 0000 000000
2016-03-16 02:11:19,0.20,1.42,0.00,13.90,17.93,22.46,15.04,47.97,1015.15,2069.00,3018.19,2808.87,3193.36,599.93,613.98,4.89,0000 0000 0000 0000 000000
2016-03-16 02:16:20,0.20,1.43,0.00,13.96,17.96,22.49,15.08,48.05,1015.16,2069.00,3014.34,2806.30,3190.47,599.88,613.80,4.94,0000 0000 0000 0000 000000
2016-03-16 02:21:21,0.20,1.44,0.00,13.98,17.98,22.50,15.07,47.93,1015.16,2069.00,3010.31,2803.60,3187.49,600.06,613.98,4.99,0000 0000 0000 0000 000000
2016-03-16 02:26:23,0.20,1.45,0.00,14.01,18.02,22.54,15.03,47.88,1015.16,2068.99,3006.57,2800.95,3184.50,599.86,613.72,5.04,0000 0000 0000 0000 000000
2016-03-16 02:31:24,0.19,1.46,0.00,14.05,18.05,22.55,15.01,47.95,1015.17,2068.95,3002.92,2798.42,3181.57,600.01,613.76,5.09,0000 0000 0000 0000 000000
2016-03-16 02:36:25,0.17,1.47,0.00,14.09,18.08,22.59,15.03,48.01,1015.16,2068.77,2998.99,2795.89,3178.76,600.22,613.87,5.14,0000 0000 0000 0000 000000
2016-03-16 02:41:26,0.16,1.48,0.00,14.13,18.12,22.63,15.00,48.04,1015.15,2068.43,2994.99,2793.24,3175.84,599.96,613.51,5.19,0000 0000 0000 0000 000000
2016-03-16 02:46:27,0.20,1.49,0.00,14.18,18.15,22.70,15.05,47.94,1015.16,2068.06,2990.71,2790.35,3172.64,600.42,613.91,5.24,0000 0000 0000 0000 000000
2016-03-16 02:51:29,0.23,1.50,0.00,14.22,18.19,22.73,15.05,48.12,1015.15,2068.00,2986.32,2787.39,3169.28,600.26,613.70,5.29,0000 0000 0000 0000 000000
2016-03-16 02:56:30,0.23,1.51,0.00,14.26,18.23,22.74,15.00,48.02,1015.15,2068.00,2981.81,2784.36,3165.87,599.91,613.18,5.34,0000 0000 0000 0000 000000
2016-03-16 03:01:31,0.24,1.52,0.00,14.33,18.27,22.80,15.02,47.99,1015.15,2067.99,2977.25,2781.28,3162.46,600.14,613.24,5.40,0000 0000 0000 0000 000000
2016-03-16 03:06:33,0.24,1.53,0.00,14.37,18.31,22.83,15.04,47.99,1015.15,2067.98,2972.57,2778.16,3159.01,599.92,612.96,5.45,0000 0000 0000 0000 000000
2016-03-16 03:11:34,0.22,1.55,0.00,14.41,18.35,22.89,14.99,47.99,1015.15,2067.80,2967.85,2775.01,3155.50,599.96,612.94,5.50,0000 0000 0000 0000 000000
2016-03-16 03:16:35,0.21,1.55,0.00,14.47,18.38,22.88,14.96,47.95,1015.15,2067.26,2963.00,2771.86,3151.93,600.14,612.97,5.55,0000 0000 0000 0000 000000
2016-03-16 03:21:36,0.23,1.57,0.00,14.52,18.43,22.92,14.94,47.93,1015.15,2067.07,2958.30,2768.69,3148.42,600.01,612.76,5.60,0000 0000 0000 0000 000000
2016-03-16 03:26:38,0.24,1.58,0.00,14.57,18.46,22.98,14.94,47.88,1015.15,2067.01,2953.69,2765.56,3144.87,599.75,612.58,5.65,0000 0000 0000 0000 000000
2016-03-16 03:31:39,0.21,1.59,0.00,14.62,18.50,23.01,15.02,48.04,1015.15,2067.00,2949.62,2762.76,3141.65,600.23,612.59,5.70,0000 0000 0000 0000 000000
2016-03-16 03:36:41,0.19,1.60,0.00,14.65,18.55,23.06,15.00,48.02,1015.15,2066.98,2945.96,2760.25,3138.84,599.85,612.25,5.75,0000 0000 0000 0000 000000
2016-03-16 03:41:42,0.18,1.61,0.00,14.70,18.58,23.08,14.94,47.98,1015.14,2066.78,2942.25,2757.67,3136.02,599.64,611.97,5.80,0000 0000 0000 0000 000000
2016-03-16 03:46:43,0.17,1.62,0.00,14.75,18.63,23.14,14.91,48.08,1015.15,2066.25,2938.00,2754.81,3133.03,599.68,611.91,5.85,0000 0000 0000 0000 000000
2016-03-16 03:51:45,0.23,1.63,0.00,14.80,18.67,23.17,15.01,48.08,1015.14,2066.03,2933.43,2751.82,3129.62,600.08,612.19,5.90,0000 0000 0000 0000 000000
2016-03-16 03:56:46,0.24,1.64,0.00,14.86,18.72,23.22,15.07,48.21,1015.15,2066.01,2928.87,2748.88,3126.18,600.31,612.25,5.95,0000 0000 0000 0000 000000
2016-03-16 04:01:47,0.22,1.65,0.00,14.94,18.77,23.25,14.99,48.09,1015.15,2065.99,2924.58,2745.97,3122.88,599.98,612.08,6.00,0000 0000 0000 0000 000000
2016-03-16 04:06:49,0.23,1.66,0.00,14.98,18.82,23.30,15.03,48.11,1015.15,2065.97,2920.32,2743.07,3119.62,599.99,611.70,6.05,0000 0000 0000 0000 000000
2016-03-16 04:11:50,0.22,1.68,0.00,15.03,18.87,23.33,14.99,48.08,1015.14,2065.76,2915.92,2740.06,3116.23,600.27,611.94,6.10,0000 0000 0000 0000 000000
2016-03-16 04:16:52,0.17,1.68,0.00,15.08,18.93,23.41,14.95,47.96,1015.13,2065.22,2911.57,2737.06,3112.88,600.34,611.88,6.15,0000 0000 0000 0000 000000
2016-03-16 04:21:53,0.23,1.70,0.00,15.13,18.98,23.46,14.96,47.99,1015.14,2065.03,2907.19,2734.08,3109.49,600.15,611.57,6.20,0000 0000 0000 0000 000000
2016-03-16 04:26:55,0.23,1.71,0.00,15.17,19.04,23.50,14.99,47.81,1015.14,2064.99,2902.84,2731.03,3106.06,600.14,611.42,6.25,0000 0000 0000 0000 000000
2016-03-16 04:31:56,0.23,1.72,0.00,15.22,19.10,23.62,14.93,47.88,1015.14,2064.95,2898.41,2728.05,3102.68,599.93,611.14,6.30,0000 0000 0000 0000 000000
2016-03-16 04:36:57,0.17,1.73,0.00,15.25,19.15,23.67,15.01,47.97,1015.15,2064.44,2894.05,2725.06,3099.31,600.00,611.35,6.35,0000 0000 0000 0000 000000
2016-03-16 04:41:58,0.22,1.74,0.00,15.28,19.21,23.73,15.02,48.04,1015.15,2064.03,2889.75,2722.06,3095.94,600.20,611.27,6.40,0000 0000 0000 0000 000000
2016-03-16 04:46:59,0.21,1.75,0.00,15.31,19.26,23.78,14.99,47.84,1015.15,2064.00,2885.73,2719.31,3092.81,599.85,610.84,6.45,0000 0000 0000 0000 000000
2016-03-16 04:52:01,0.22,1.76,0.00,15.36,19.31,23.89,14.88,47.80,1015.12,2063.98,2881.68,2716.55,3089.79,599.59,610.51,6.50,0000 0000 0000 0000 000000
2016-03-16 04:57:02,0.22,1.77,0.00,15.40,19.36,23.91,15.00,47.87,1015.14,2063.91,2877.66,2713.69,3086.58,600.30,611.14,6.55,0000 0000 0000 0000 000000
2016-03-16 05:02:03,0.16,1.78,0.00,15.42,19.41,23.96,15.01,47.97,1015.15,2063.41,2873.58,2710.92,3083.45,599.98,610.75,6.60,0000 0000 0000 0000 000000
2016-03-16 05:07:04,0.21,1.79,0.00,15.45,19.45,24.02,15.01,47.98,1015.13,2063.05,2869.33,2708.04,3080.21,599.89,610.68,6.65,0000 0000 0000 0000 000000
2016-03-16 05:12:06,0.24,1.80,0.00,15.50,19.49,24.03,14.97,47.88,1015.14,2063.00,2864.92,2705.04,3076.88,600.14,610.77,6.70,0000 0000 0000 0000 000000
2016-03-16 05:17:07,0.23,1.82,0.00,15.53,19.53,24.02,14.88,47.83,1015.14,2063.00,2860.69,2702.14,3073.68,599.69,610.25,6.75,0000 0000 0000 0000 000000
2016-03-16 05:22:08,0.22,1.83,0.00,15.54,19.57,24.04,14.91,47.80,1015.11,2062.98,2856.53,2699.33,3070.58,600.04,610.53,6.80,0000 0000 0000 0000 000000
2016-03-16 05:27:09,0.22,1.84,0.00,15.57,19.61,24.07,14.99,47.80,1015.07,2062.95,2852.47,2696.58,3067.47,600.22,610.54,6.85,0000 0000 0000 0000 000000
2016-03-16 05:32:10,0.15,1.85,0.00,15.61,19.65,24.10,14.96,47.86,1014.91,2062.52,2848.76,2694.05,3064.58,599.69,609.94,6.90,0000 0000 0000 0000 000000
2016-03-16 05:37:12,0.17,1.86,0.00,15.67,19.69,24.19,14.92,47.82,1014.83,2062.07,2845.06,2691.55,3061.80,600.07,610.22,6.95,0000 0000 0000 0000 000000
2016-03-16 05:42:13,0.19,1.87,0.00,15.69,19.73,24.29,14.97,47.74,1014.89,2062.01,2841.53,2689.16,3059.10,599.93,609.98,7.00,0000 0000 0000 0000 000000
2016-03-16 05:47:15,0.20,1.88,0.00,15.71,19.77,24.26,14.88,47.70,1014.80,2062.00,2837.94,2686.71,3056.28,599.85,609.85,7.05,0000 0000 0000 0000 000000
2016-03-16 05:52:16,0.21,1.89,0.00,15.76,19.81,24.32,14.94,47.86,1014.68,2061.99,2834.21,2684.23,3053.40,600.02,609.78,7.10,0000 0000 0000 0000 000000
2016-03-16 05:57:17,0.21,1.90,0.00,15.79,19.85,24.40,14.94,47.92,1014.70,2061.95,2830.47,2681.67,3050.55,600.21,609.93,7.15,0000 0000 0000 0000 000000
2016-03-16 06:02:19,0.17,1.91,0.00,15.81,19.89,24.45,14.87,47.90,1014.74,2061.70,2826.69,2679.13,3047.66,599.89,609.74,7.20,0000 0000 0000 0000 000000
2016-03-16 06:07:20,0.17,1.92,0.00,15.86,19.93,24.41,14.88,47.81,1014.84,2061.18,2822.94,2676.55,3044.76,599.60,609.21,7.25,0000 0000 0000 0000 000000
2016-03-16 06:12:21,0.21,1.93,0.00,15.89,19.97,24.46,14.92,47.95,1014.90,2061.02,2819.17,2673.96,3041.85,599.85,609.51,7.30,0000 0000 0000 0000 000000
2016-03-16 06:17:22,0.22,1.94,0.00,15.95,20.01,24.49,14.99,47.88,1014.96,2061.00,2815.38,2671.34,3038.88,600.18,609.67,7.35,0000 0000 0000 0000 000000
2016-03-16 06:22:24,0.22,1.95,0.00,15.97,20.05,24.55,14.81,47.65,1014.87,2060.99,2811.48,2668.67,3035.86,599.87,609.35,7.40,0000 0000 0000 0000 000000
2016-03-16 06:27:25,0.21,1.96,0.00,15.99,20.09,24.62,14.90,47.92,1014.85,2060.97,2807.71,2666.10,3033.01,600.19,609.62,7.45,0000 0000 0000 0000 000000
2016-03-16 06:32:26,0.17,1.97,0.00,16.02,20.13,24.62,14.99,47.87,1014.88,2060.67,2803.94,2663.48,3030.01,600.43,609.81,7.50,0000 0000 0000 0000 000000
2016-03-16 06:37:27,0.18,1.98,0.00,16.04,20.17,24.69,14.93,47.90,1014.92,2060.14,2800.19,2660.85,3027.04,600.00,609.39,7.55,0000 0000 0000 0000 000000
2016-03-16 06:42:29,0.21,1.99,0.00,16.07,20.21,24.75,14.90,47.92,1014.97,2060.03,2796.32,2658.26,3024.09,599.67,609.04,7.60,0000 0000 0000 0000 000000
2016-03-16 06:47:31,0.23,2.00,0.00,16.11,20.24,24.77,14.94,47.91,1015.06,2060.00,2792.32,2655.53,3021.03,599.72,609.13,7.65,0000 0000 0000 0000 000000
2016-03-16 06:52:32,0.25,2.01,0.00,16.14,20.28,24.76,15.04,47.88,1015.08,2060.00,2788.12,2652.56,3017.67,600.04,609.23,7.70,0000 0000 0000 0000 000000
2016-03-16 06:57:34,0.24,2.03,0.00,16.17,20.31,24.76,14.96,47.83,1014.99,2059.99,2783.84,2649.68,3014.49,600.08,609.21,7.75,0000 0000 0000 0000 000000
2016-03-16 07:02:35,0.23,2.04,0.00,16.21,20.33,24.84,14.92,47.67,1014.89,2059.90,2779.55,2646.78,3011.19,600.16,609.19,7.81,0000 0000 0000 0000 000000
2016-03-16 07:07:37,0.18,2.05,0.00,16.25,20.35,24.87,15.00,47.77,1015.06,2059.54,2775.39,2643.94,3008.11,599.88,608.91,7.86,0000 0000 0000 0000 000000
2016-03-16 07:12:38,0.22,2.06,0.00,16.28,20.38,24.82,14.90,47.67,1014.95,2059.27,2771.28,2641.11,3005.03,600.23,609.13,7.91,0000 0000 0000 0000 000000
2016-03-16 07:17:39,0.22,2.07,0.00,16.32,20.39,24.84,14.82,47.47,1015.04,2059.08,2767.34,2638.37,3001.95,599.99,608.83,7.96,0000 0000 0000 0000 000000
2016-03-16 07:22:40,0.21,2.08,0.00,16.35,20.41,24.87,14.88,47.62,1015.11,2059.02,2763.46,2635.82,2999.12,599.98,608.89,8.01,0000 0000 0000 0000 000000
2016-03-16 07:27:42,0.21,2.09,0.00,16.37,20.42,24.86,14.90,47.66,1015.15,2059.03,2759.71,2633.34,2996.36,599.90,608.75,8.06,0000 0000 0000 0000 000000
2016-03-16 07:32:43,0.21,2.10,0.00,16.40,20.44,24.87,14.86,47.59,1015.13,2059.00,2756.15,2630.88,2993.57,599.87,608.49,8.11,0000 0000 0000 0000 000000
2016-03-16 07:37:44,0.22,2.11,0.00,16.42,20.44,24.89,14.92,47.63,1015.14,2059.00,2752.47,2628.35,2990.73,599.99,608.63,8.16,0000 0000 0000 0000 000000
2016-03-16 07:42:45,0.21,2.12,0.00,16.46,20.46,24.92,14.98,47.65,1015.15,2059.00,2748.87,2625.84,2987.92,600.53,609.16,8.21,0000 0000 0000 0000 000000
2016-03-16 07:47:47,0.21,2.13,0.00,16.48,20.47,24.89,14.87,47.50,1015.15,2059.00,2745.24,2623.43,2985.19,599.72,608.27,8.26,0000 0000 0000 0000 000000
2016-03-16 07:52:48,0.21,2.14,0.00,16.51,20.48,24.90,14.91,47.33,1015.16,2058.98,2741.73,2621.13,2982.38,599.99,608.60,8.31,0000 0000 0000 0000 000000
2016-03-16 07:57:49,0.20,2.15,0.00,16.52,20.49,24.94,14.86,47.33,1015.17,2058.97,2738.00,2618.66,2979.57,600.06,608.56,8.36,0000 0000 0000 0000 000000
2016-03-16 08:02:50,0.22,2.17,0.00,16.55,20.49,24.94,14.89,47.23,1015.17,2058.97,2734.35,2616.24,2976.83,600.15,608.59,8.41,0000 0000 0000 0000 000000
2016-03-16 08:07:51,0.21,2.18,0.00,16.57,20.51,24.94,14.90,47.48,1015.20,2058.97,2730.65,2613.79,2974.09,599.96,608.51,8.46,0000 0000 0000 0000 000000
2016-03-16 08:12:52,0.20,2.19,0.00,16.60,20.52,24.95,14.90,47.31,1015.36,2058.95,2727.11,2611.42,2971.49,600.18,608.43,8.51,0000 0000 0000 0000 000000
2016-03-16 08:17:54,0.20,2.20,0.00,16.62,20.52,24.96,14.84,47.18,1015.56,2058.89,2723.75,2609.09,2968.75,599.92,608.46,8.56,0000 0000 0000 0000 000000
2016-03-16 08:22:55,0.21,2.21,0.00,16.62,20.54,24.99,14.87,47.21,1015.60,2058.89,2720.21,2606.71,2966.06,599.79,608.24,8.61,0000 0000 0000 0000 000000
2016-03-16 08:27:56,0.16,2.22,0.00,16.63,20.54,24.98,14.92,47.41,1015.55,2058.57,2716.53,2604.23,2963.34,599.93,608.45,8.66,0000 0000 0000 0000 000000
2016-03-16 08:32:57,0.20,2.23,0.00,16.68,20.55,25.00,14.91,47.38,1015.35,2058.32,2712.89,2601.79,2960.61,599.93,608.26,8.71,0000 0000 0000 0000 000000
2016-03-16 08:37:58,0.22,2.24,0.00,16.79,20.57,25.03,14.79,47.13,1015.24,2058.22,2709.28,2599.32,2957.83,599.73,607.62,8.76,0000 0000 0000 0000 000000
2016-03-16 08:43:00,0.20,2.25,0.00,16.97,20.57,24.98,14.93,47.22,1015.19,2058.14,2705.61,2596.83,2954.95,599.84,607.32,8.81,0000 0000 0000 0000 000000
2016-03-16 08:48:01,0.21,2.26,0.00,17.04,20.59,25.01,14.79,46.86,1015.17,2058.11,2702.07,2594.34,2952.11,599.79,607.25,8.86,0000 0000 0000 0000 000000
2016-03-16 08:53:02,0.21,2.27,0.00,16.99,20.59,25.03,14.87,47.06,1015.18,2058.06,2698.51,2591.94,2949.40,600.19,607.88,8.91,0000 0000 0000 0000 000000
2016-03-16 08:58:03,0.20,2.28,0.00,16.92,20.60,25.07,14.87,46.83,1015.19,2058.05,2695.06,2589.59,2946.75,600.11,607.71,8.96,0000 0000 0000 0000 000000
2016-03-16 09:03:05,0.21,2.29,0.00,16.88,20.62,25.09,14.85,46.67,1015.16,2058.02,2691.56,2587.22,2944.11,600.00,607.76,9.01,0000 0000 0000 0000 000000
2016-03-16 09:08:06,0.21,2.30,0.00,16.83,20.62,25.09,14.86,46.86,1015.16,2058.01,2688.00,2584.81,2941.48,600.25,608.06,9.06,0000 0000 0000 0000 000000
2016-03-16 09:13:07,0.19,2.31,0.00,16.77,20.62,25.11,14.89,46.86,1015.15,2058.00,2684.79,2582.50,2938.91,600.26,608.24,9.11,0000 0000 0000 0000 000000
2016-03-16 09:18:09,0.20,2.32,0.00,16.74,20.61,25.12,14.90,47.19,1015.16,2058.00,2681.33,2580.26,2936.49,600.22,608.23,9.16,0000 0000 0000 0000 000000
2016-03-16 09:23:10,0.19,2.33,0.00,16.72,20.60,25.14,14.85,47.27,1015.15,2058.00,2677.98,2578.03,2934.12,600.10,608.16,9.21,0000 0000 0000 0000 000000
2016-03-16 09:28:11,0.18,2.34,0.00,16.67,20.59,25.14,14.90,47.12,1015.15,2058.00,2675.04,2575.95,2931.63,599.95,608.12,9.26,0000 0000 0000 0000 000000
2016-03-16 09:33:12,0.18,2.35,0.00,16.64,20.59,25.13,14.89,46.98,1015.15,2058.01,2671.94,2573.85,2929.27,599.98,608.08,9.31,0000 0000 0000 0000 000000
2016-03-16 09:38:14,0.18,2.36,0.00,16.63,20.59,25.13,14.97,47.15,1015.17,2058.04,2668.79,2571.84,2927.09,600.08,608.29,9.36,0000 0000 0000 0000 000000
2016-03-16 09:43:15,0.18,2.37,0.00,16.59,20.57,25.09,14.92,47.11,1015.22,2058.01,2665.82,2569.73,2924.71,600.09,608.49,9.41,0000 0000 0000 0000 000000
2016-03-16 09:48:16,0.18,2.38,0.00,16.57,20.57,25.11,14.82,46.70,1015.17,2058.01,2662.80,2567.65,2922.32,599.60,607.92,9.46,0000 0000 0000 0000 000000
2016-03-16 09:53:17,0.17,2.39,0.00,16.52,20.57,25.10,14.88,46.99,1015.16,2058.03,2659.78,2565.66,2920.18,599.88,608.38,9.51,0000 0000 0000 0000 000000
2016-03-16 09:58:18,0.18,2.40,0.00,16.51,20.57,25.05,14.84,46.75,1015.17,2058.04,2656.92,2563.66,2917.87,599.83,608.52,9.56,0000 0000 0000 0000 000000
2016-03-16 10:03:20,0.17,2.41,0.00,16.48,20.55,25.05,14.91,46.86,1015.17,2058.04,2654.15,2561.71,2915.56,600.07,608.66,9.61,0000 0000 0000 0000 000000
2016-03-16 10:08:21,0.18,2.42,0.00,16.44,20.54,25.01,14.76,46.77,1015.18,2058.04,2651.29,2559.74,2913.33,599.43,608.16,9.66,0000 0000 0000 0000 000000
2016-03-16 10:13:23,0.17,2.43,0.00,16.43,20.54,25.02,14.92,47.02,1015.17,2058.08,2648.33,2558.02,2911.15,599.84,608.42,9.71,0000 0000 0000 0000 000000
2016-03-16 10:18:24,0.18,2.43,0.00,16.42,20.52,25.01,14.86,47.19,1015.17,2058.07,2645.28,2555.97,2908.91,600.05,608.87,9.76,0000 0000 0000 0000 000000
2016-03-16 10:23:26,0.19,2.44,0.00,16.38,20.52,24.95,14.89,47.23,1015.22,2058.12,2642.30,2553.98,2906.70,599.81,608.63,9.81,0000 0000 0000 0000 000000
2016-03-16 10:28:27,0.19,2.45,0.00,16.35,20.49,24.93,14.85,47.19,1015.21,2058.17,2639.28,2551.94,2904.42,600.36,609.34,9.86,0000 0000 0000 0000 000000
2016-03-16 10:33:28,0.20,2.46,0.00,16.33,20.49,24.87,14.96,47.33,1015.16,2058.36,2636.26,2549.88,2902.24,600.33,609.13,9.91,0000 0000 0000 0000 000000
2016-03-16 10:38:30,0.21,2.48,0.00,16.32,20.47,24.88,14.91,47.43,1015.15,2058.80,2633.43,2547.95,2900.08,599.88,608.81,9.96,0000 0000 0000 0000 000000
2016-03-16 10:43:31,0.18,2.48,0.00,16.33,20.47,24.86,14.92,47.28,1015.15,2058.93,2630.62,2545.98,2897.87,599.99,608.84,10.01,0000 0000 0000 0000 000000
2016-03-16 10:48:33,0.17,2.49,0.00,16.29,20.44,24.83,14.94,47.36,1015.15,2058.96,2627.88,2544.07,2895.58,600.06,608.87,10.06,0000 0000 0000 0000 000000
2016-03-16 10:53:34,0.17,2.50,0.00,16.26,20.44,24.81,14.88,47.27,1015.13,2058.97,2625.20,2542.18,2893.49,599.97,609.17,10.11,0000 0000 0000 0000 000000
2016-03-16 10:58:35,0.18,2.51,0.00,16.24,20.43,24.82,14.91,47.51,1015.15,2058.96,2622.48,2540.20,2891.26,600.11,609.18,10.17,0000 0000 0000 0000 000000
2016-03-16 11:03:37,0.18,2.52,0.00,16.22,20.42,24.79,14.92,47.38,1015.15,2058.97,2619.84,2538.22,2888.88,599.66,608.74,10.22,0000 0000 0000 0000 000000
2016-03-16 11:08:38,0.17,2.53,0.00,16.19,20.41,24.78,14.94,47.24,1015.15,2058.97,2617.05,2536.23,2886.58,600.64,609.77,10.27,0000 0000 0000 0000 000000
2016-03-16 11:13:39,0.18,2.54,0.00,16.17,20.39,24.74,14.89,47.37,1015.15,2058.98,2614.26,2534.35,2884.50,600.13,609.36,10.32,0000 0000 0000 0000 000000
2016-03-16 11:18:41,0.16,2.55,0.00,16.14,20.38,24.71,14.96,47.47,1015.15,2058.97,2611.39,2532.47,2882.54,599.98,609.26,10.37,0000 0000 0000 0000 000000
2016-03-16 11:23:42,0.20,2.56,0.00,16.12,20.37,24.70,14.87,47.38,1015.15,2058.98,2608.45,2530.41,2880.29,599.65,609.11,10.42,0000 0000 0000 0000 000000
2016-03-16 11:28:44,0.23,2.57,0.00,16.10,20.35,24.66,14.88,47.30,1015.15,2058.99,2604.97,2527.96,2877.60,600.27,609.70,10.47,0000 0000 0000 0000 000000
2016-03-16 11:33:45,0.23,2.58,0.00,16.09,20.34,24.67,14.91,47.45,1015.15,2058.99,2601.13,2525.27,2874.62,599.59,608.98,10.52,0000 0000 0000 0000 000000
2016-03-16 11:38:46,0.21,2.59,0.00,16.05,20.32,24.64,14.96,47.37,1015.15,2058.99,2597.73,2523.03,2872.14,600.00,609.47,10.57,0000 0000 0000 0000 000000
2016-03-16 11:43:48,0.21,2.60,0.00,16.03,20.31,24.59,14.99,47.41,1015.16,2058.99,2594.29,2520.66,2869.50,600.34,609.92,10.62,0000 0000 0000 0000 000000
2016-03-16 11:48:49,0.20,2.61,0.00,16.01,20.29,24.61,14.92,47.38,1015.16,2058.99,2591.10,2518.44,2866.98,599.83,609.34,10.67,0000 0000 0000 0000 000000
2016-03-16 11:53:50,0.19,2.62,0.00,15.98,20.27,24.58,14.95,47.34,1015.16,2059.00,2588.09,2516.30,2864.43,599.89,609.53,10.72,0000 0000 0000 0000 000000
2016-03-16 11:58:51,0.18,2.63,0.00,15.96,20.26,24.56,14.92,47.24,1015.16,2059.00,2585.32,2514.38,2862.25,599.70,609.40,10.77,0000 0000 0000 0000 000000
2016-03-16 12:03:53,0.18,2.64,0.00,15.94,20.24,24.55,14.88,47.18,1015.15,2059.00,2582.53,2512.47,2860.16,599.91,609.61,10.82,0000 0000 0000 0000 000000
2016-03-16 12:08:54,0.21,2.65,0.00,15.91,20.22,24.53,14.98,47.49,1015.15,2059.01,2579.20,2510.34,2857.91,600.06,609.68,10.87,0000 0000 0000 0000 000000
2016-03-16 12:13:55,0.16,2.66,0.00,15.90,20.19,24.48,14.94,47.41,1015.15,2059.03,2576.45,2508.45,2855.73,600.07,609.87,10.92,0000 0000 0000 0000 000000
2016-03-16 12:18:56,0.19,2.67,0.00,15.88,20.18,24.48,14.98,47.51,1015.15,2059.21,2573.99,2506.72,2853.75,600.01,609.85,10.97,0000 0000 0000 0000 000000
2016-03-16 12:23:57,0.15,2.68,0.00,15.86,20.16,24.50,14.90,47.36,1015.12,2059.37,2571.56,2505.05,2851.84,600.14,610.00,11.02,0000 0000 0000 0000 000000
2016-03-16 12:28:59,0.17,2.69,0.00,15.84,20.14,24.47,14.97,47.52,1014.96,2059.46,2569.27,2503.45,2850.02,599.89,609.63,11.07,0000 0000 0000 0000 000000
2016-03-16 12:34:00,0.15,2.70,0.00,15.81,20.12,24.41,14.94,47.48,1014.92,2059.61,2567.03,2501.82,2848.24,600.02,609.88,11.12,0000 0000 0000 0000 000000
2016-03-16 12:39:01,0.17,2.70,0.00,15.76,20.09,24.37,14.87,47.38,1014.94,2059.80,2564.74,2500.31,2846.39,599.71,609.67,11.17,0000 0000 0000 0000 000000
2016-03-16 12:44:02,0.16,2.71,0.00,15.74,20.07,24.35,14.96,47.52,1014.85,2059.87,2562.31,2498.61,2844.55,600.20,610.06,11.22,0000 0000 0000 0000 000000
2016-03-16 12:49:03,0.14,2.72,0.00,15.71,20.05,24.29,14.95,47.35,1014.74,2059.98,2560.16,2497.07,2842.77,599.98,609.77,11.27,0000 0000 0000 0000 000000
2016-03-16 12:54:04,0.14,2.73,0.00,15.69,20.03,24.31,14.86,47.29,1014.69,2059.99,2558.18,2495.60,2840.97,599.78,609.68,11.32,0000 0000 0000 0000 000000
2016-03-16 12:59:05,0.13,2.73,0.00,15.66,20.01,24.33,14.99,47.42,1014.66,2059.98,2556.02,2494.27,2839.37,600.29,610.26,11.37,0000 0000 0000 0000 000000